Regional Weather Roundup
Issued by NWS

Home | Current Version | Previous Version | Graphics & Text | Print | Product List | Glossary On
Versions: 1 2 3 4 5 6 7 8 9 10 11 12 13 14 15 16 17 18 19 20 21 22 23 24 25 26 27 28 29 30 31 32 33 34 35 36 37 38 39 40 41 42 43 44 45 46 47 48 49 50
951
ASUS44 KMEG 042110
RWRTN
TENNESSEE HOURLY STATE WEATHER ROUNDUP
NATIONAL WEATHER SERVICE MEMPHIS TN
300 PM CST SUN DEC 04 2016

TNZ002-004-019-021-049-052-054-088>092-042200-
WEST TENNESSEE

CITY           SKY/WX    TMP DP  RH WIND       PRES   REMARKS
MEMPHIS INTL   DRZL/FOG  46  45  96 NW8       29.97F VSB 1
NWS MEMPHIS      N/A     46 N/A N/A MISG        N/A
JACKSON        CLOUDY    47  46  97 NW9       29.98R FOG
DYERSBURG      CLOUDY   N/A N/A N/A NW6       29.98R
UNION CITY     CLOUDY    45  45 100 W5        29.96S
PARIS          CLOUDY    43  43 100 W5        29.96R
HUNTINGDON     FOG       46  45  93 NW5       29.96R VSB 1
LEXINGTON      CLOUDY    46  46 100 W5        29.96R
$$

TNZ008-025-027-028-033-062-065-066-042200-
NORTH MIDDLE TENNESSEE

CITY           SKY/WX    TMP DP  RH WIND       PRES   REMARKS
NASHVILLE      DRIZZLE   48  46  93 S6        29.94R FOG
PORTLAND       CLOUDY    46  46 100 S9        29.92S FOG
CLARKSVILLE    CLOUDY    47  45  93 W5        29.94R FOG
SMYRNA         LGT RAIN  48  46  93 S3        29.95R FOG
CROSSVILLE     CLOUDY    43  41  93 S8        29.93F
$$

TNZ061-075-076-078-094-096-097-042200-
SOUTH MIDDLE TENNESSEE

CITY           SKY/WX    TMP DP  RH WIND       PRES   REMARKS
FAYETTEVILLE   CLOUDY    48  46  93 S10       29.94R
TULLAHOMA      CLOUDY    45  45 100 S7        29.94R
WINCHESTER     CLOUDY    46  45  93 CALM      29.94S
MCMINNVILLE    CLOUDY    48  48 100 S6        29.92R
COLUMBIA       CLOUDY   N/A N/A N/A S5        29.92S
SHELBYVILLE    CLOUDY    48  48 100 S9        29.95R
$$

TNZ017-018-042-046-047-042200-
NORTHEAST TENNESSEE

CITY           SKY/WX    TMP DP  RH WIND       PRES   REMARKS
TRI CITIES     LGT RAIN  44  43  96 E3        30.01F FOG
ELIZABETHTON   LGT RAIN  45  43  93 E6        30.02S
$$

TNZ012-013-036-069-073-074-042200-
CENTRAL EAST TENNESSEE

CITY           SKY/WX    TMP DP  RH WIND       PRES   REMARKS
KNOXVILLE      NOT AVBL
OAK RIDGE      LGT RAIN  44  42  93 CALM      29.99F
DOWNTOWN KNOXV CLOUDY    46  45  93 CALM      29.98S FOG
GATLINBURG     CLOUDY    43  43 100 W3        29.97S
MORRISTOWN     CLOUDY    46  45  93 E6        29.96S
JACKSBORO      CLOUDY    43  43 100 CALM      30.00F FOG
$$

TNZ083-085-099-042200-
SOUTHEAST TENNESSEE

CITY           SKY/WX    TMP DP  RH WIND       PRES   REMARKS
CHATTANOOGA    LGT RAIN  47  43  86 S6        29.99F FOG
$$

SKY/WX REPORTED AS FAIR MEANS FEW OR NO CLOUDS BELOW
12 THOUSAND FEET.





USA.gov is the U.S. government's official web portal to all federal, state and local government web resources and services.